Time,TemperatureF,DewpointF,PressureIn,WindDirection,WindDirectionDegrees,WindSpeedMPH,WindSpeedGustMPH,Humidity,HourlyPrecipIn,Conditions,Clouds,dailyrainin,SoftwareType,DateUTC
2013-01-23 00:09:00,54.0,45.9,30.01,WNW,292,0.0,0.0,74,0.00,,,0.00,Weather View 32 v70,2013-01-23 08:09:00,
2013-01-23 00:14:00,54.0,45.9,30.01,WNW,292,0.0,0.0,74,0.00,,,0.00,Weather View 32 v70,2013-01-23 08:14:00,
2013-01-23 00:19:00,54.0,46.2,30.01,WNW,292,0.0,0.0,75,0.00,,,0.00,Weather View 32 v70,2013-01-23 08:19:00,
2013-01-23 00:24:00,53.0,44.9,30.01,WNW,292,0.0,0.0,74,0.00,,,0.00,Weather View 32 v70,2013-01-23 08:24:00,
2013-01-23 00:29:00,53.0,45.3,30.00,WNW,292,0.0,0.0,75,0.00,,,0.00,Weather View 32 v70,2013-01-23 08:29:00,
2013-01-23 00:34:00,53.0,45.6,30.01,WNW,292,0.0,0.0,76,0.00,,,0.00,Weather View 32 v70,2013-01-23 08:34:00,
2013-01-23 00:39:00,53.0,45.6,30.01,WNW,292,0.0,0.0,76,0.00,,,0.00,Weather View 32 v70,2013-01-23 08:39:00,
2013-01-23 00:44:00,53.0,45.3,30.01,WNW,292,0.0,0.0,75,0.00,,,0.00,Weather View 32 v70,2013-01-23 08:44:00,
2013-01-23 00:49:00,53.0,45.6,30.01,WNW,292,0.0,0.0,76,0.00,,,0.00,Weather View 32 v70,2013-01-23 08:49:00,
2013-01-23 00:54:00,53.0,45.6,30.01,NW,315,0.0,0.0,76,0.00,,,0.00,Weather View 32 v70,2013-01-23 08:54:00,
2013-01-23 00:59:00,53.0,45.3,30.01,WNW,292,0.0,0.0,75,0.00,,,0.00,Weather View 32 v70,2013-01-23 08:59:00,
2013-01-23 01:04:00,53.0,45.3,30.01,WNW,292,0.0,0.0,75,0.00,,,0.00,Weather View 32 v70,2013-01-23 09:04:00,
2013-01-23 01:06:00,53.0,45.3,30.01,WNW,292,0.0,0.0,75,0.00,,,0.00,Weather View 32 v70,2013-01-23 09:06:00,
2013-01-23 01:14:00,53.0,45.6,30.01,WNW,292,0.0,0.0,76,0.00,,,0.00,Weather View 32 v70,2013-01-23 09:14:00,
2013-01-23 01:19:00,53.0,45.3,30.01,WNW,292,0.0,0.0,75,0.00,,,0.00,Weather View 32 v70,2013-01-23 09:19:00,
2013-01-23 01:24:00,53.0,45.3,30.01,WNW,292,0.0,0.0,75,0.00,,,0.00,Weather View 32 v70,2013-01-23 09:24:00,
2013-01-23 01:29:00,53.0,45.6,30.00,WNW,292,0.0,0.0,76,0.00,,,0.00,Weather View 32 v70,2013-01-23 09:29:00,
2013-01-23 01:34:00,53.0,45.3,30.00,WNW,292,0.0,0.0,75,0.00,,,0.00,Weather View 32 v70,2013-01-23 09:34:00,
2013-01-23 01:39:00,52.0,44.3,30.00,WNW,292,0.0,0.0,75,0.00,,,0.00,Weather View 32 v70,2013-01-23 09:39:00,
2013-01-23 01:44:00,53.0,45.3,30.00,WNW,292,0.0,0.0,75,0.00,,,0.00,Weather View 32 v70,2013-01-23 09:44:00,
2013-01-23 01:49:00,53.0,45.6,30.00,WNW,292,0.0,0.0,76,0.00,,,0.00,Weather View 32 v70,2013-01-23 09:49:00,
2013-01-23 01:54:00,52.0,44.0,30.00,ENE,67,0.0,2.0,74,0.00,,,0.00,Weather View 32 v70,2013-01-23 09:54:00,
2013-01-23 01:59:00,52.0,44.0,30.00,NNE,22,0.0,2.0,74,0.00,,,0.00,Weather View 32 v70,2013-01-23 09:59:00,
2013-01-23 02:04:00,52.0,44.3,30.00,NNE,22,0.0,2.0,75,0.00,,,0.00,Weather View 32 v70,2013-01-23 10:04:00,
2013-01-23 02:07:00,52.0,44.3,30.00,NNE,22,0.0,2.0,75,0.00,,,0.00,Weather View 32 v70,2013-01-23 10:07:00,
2013-01-23 02:09:00,52.0,44.3,30.00,NNE,22,0.0,2.0,75,0.00,,,0.00,Weather View 32 v70,2013-01-23 10:09:00,
2013-01-23 02:14:00,52.0,44.3,30.00,NNE,22,0.0,2.0,75,0.00,,,0.00,Weather View 32 v70,2013-01-23 10:14:00,
2013-01-23 02:19:00,52.0,44.3,30.01,SW,225,0.0,2.0,75,0.00,,,0.00,Weather View 32 v70,2013-01-23 10:19:00,
2013-01-23 02:29:00,52.0,44.3,30.01,SW,225,0.0,2.0,75,0.00,,,0.00,Weather View 32 v70,2013-01-23 10:29:00,
2013-01-23 02:34:00,52.0,44.3,30.00,SW,225,0.0,2.0,75,0.00,,,0.00,Weather View 32 v70,2013-01-23 10:34:00,
2013-01-23 02:39:00,52.0,44.7,30.00,SW,225,0.0,2.0,76,0.00,,,0.00,Weather View 32 v70,2013-01-23 10:39:00,
2013-01-23 02:44:00,52.0,44.3,30.00,SW,225,0.0,2.0,75,0.00,,,0.00,Weather View 32 v70,2013-01-23 10:44:00,
2013-01-23 02:49:00,52.0,44.3,29.99,SW,225,0.0,2.0,75,0.00,,,0.00,Weather View 32 v70,2013-01-23 10:49:00,
2013-01-23 02:58:00,52.0,45.0,30.00,WSW,247,0.0,1.0,77,0.00,,,0.00,Weather View 32 v70,2013-01-23 10:58:00,
2013-01-23 03:03:00,52.0,44.3,30.00,WSW,247,0.0,2.0,75,0.00,,,0.00,Weather View 32 v70,2013-01-23 11:03:00,
2013-01-23 03:07:00,52.0,44.3,30.00,WSW,247,0.0,2.0,75,0.00,,,0.00,Weather View 32 v70,2013-01-23 11:07:00,
2013-01-23 03:10:00,52.0,44.3,29.99,WSW,247,0.0,2.0,75,0.00,,,0.00,Weather View 32 v70,2013-01-23 11:10:00,
2013-01-23 03:14:00,52.0,44.3,29.99,WNW,292,0.0,2.0,75,0.00,,,0.00,Weather View 32 v70,2013-01-23 11:14:00,
2013-01-23 03:19:00,52.0,45.0,29.99,WNW,292,0.0,2.0,77,0.00,,,0.00,Weather View 32 v70,2013-01-23 11:19:00,
2013-01-23 03:24:00,52.0,44.3,29.99,WNW,292,0.0,2.0,75,0.00,,,0.00,Weather View 32 v70,2013-01-23 11:24:00,
2013-01-23 03:29:00,52.0,44.3,29.99,WNW,292,0.0,2.0,75,0.00,,,0.00,Weather View 32 v70,2013-01-23 11:29:00,
2013-01-23 03:34:00,52.0,44.7,29.99,WNW,292,0.0,2.0,76,0.00,,,0.00,Weather View 32 v70,2013-01-23 11:34:00,
2013-01-23 03:39:00,52.0,44.3,29.99,WNW,292,0.0,2.0,75,0.00,,,0.00,Weather View 32 v70,2013-01-23 11:39:00,
2013-01-23 03:44:00,52.0,44.3,29.98,WNW,292,0.0,2.0,75,0.00,,,0.00,Weather View 32 v70,2013-01-23 11:44:00,
2013-01-23 03:49:00,52.0,44.3,29.98,WNW,292,0.0,2.0,75,0.00,,,0.00,Weather View 32 v70,2013-01-23 11:49:00,
2013-01-23 03:54:00,52.0,45.0,29.99,WNW,292,0.0,2.0,77,0.00,,,0.00,Weather View 32 v70,2013-01-23 11:54:00,
2013-01-23 03:59:00,52.0,44.3,29.99,WNW,292,0.0,2.0,75,0.00,,,0.00,Weather View 32 v70,2013-01-23 11:59:00,
2013-01-23 04:04:00,51.0,43.3,29.98,WNW,292,0.0,0.0,75,0.00,,,0.00,Weather View 32 v70,2013-01-23 12:04:00,
2013-01-23 04:08:00,51.0,43.3,29.98,WNW,292,0.0,0.0,75,0.00,,,0.00,Weather View 32 v70,2013-01-23 12:08:00,
2013-01-23 04:09:00,51.0,44.0,29.98,WNW,292,0.0,0.0,77,0.00,,,0.00,Weather View 32 v70,2013-01-23 12:09:00,
2013-01-23 04:14:00,51.0,43.3,29.98,WNW,292,0.0,0.0,75,0.00,,,0.00,Weather View 32 v70,2013-01-23 12:14:00,
2013-01-23 04:19:00,52.0,44.3,29.97,WNW,292,0.0,0.0,75,0.00,,,0.00,Weather View 32 v70,2013-01-23 12:19:00,
2013-01-23 04:24:00,52.0,44.7,29.97,WNW,292,0.0,0.0,76,0.00,,,0.00,Weather View 32 v70,2013-01-23 12:24:00,
2013-01-23 04:29:00,52.0,44.3,29.97,SE,135,0.0,0.0,75,0.00,,,0.00,Weather View 32 v70,2013-01-23 12:29:00,
2013-01-23 04:34:00,52.0,44.3,29.98,SE,135,0.0,1.0,75,0.00,,,0.00,Weather View 32 v70,2013-01-23 12:34:00,
2013-01-23 04:39:00,51.0,43.3,29.98,SE,135,0.0,1.0,75,0.00,,,0.00,Weather View 32 v70,2013-01-23 12:39:00,
2013-01-23 04:44:00,51.0,44.0,29.98,SE,135,0.0,1.0,77,0.00,,,0.00,Weather View 32 v70,2013-01-23 12:44:00,
2013-01-23 04:49:00,51.0,43.3,29.98,SW,225,0.0,1.0,75,0.00,,,0.00,Weather View 32 v70,2013-01-23 12:49:00,
2013-01-23 04:54:00,51.0,43.3,29.98,SW,225,0.0,1.0,75,0.00,,,0.00,Weather View 32 v70,2013-01-23 12:54:00,
2013-01-23 04:59:00,51.0,43.3,29.97,SW,225,0.0,1.0,75,0.00,,,0.00,Weather View 32 v70,2013-01-23 12:59:00,
2013-01-23 05:04:00,51.0,43.3,29.97,SW,225,0.0,1.0,75,0.00,,,0.00,Weather View 32 v70,2013-01-23 13:04:00,
2013-01-23 05:09:00,51.0,43.3,29.96,SW,225,0.0,1.0,75,0.00,,,0.00,Weather View 32 v70,2013-01-23 13:09:00,
2013-01-23 05:14:00,51.0,43.3,29.96,SW,225,0.0,1.0,75,0.00,,,0.00,Weather View 32 v70,2013-01-23 13:14:00,
2013-01-23 05:19:00,51.0,44.0,29.96,SW,225,0.0,1.0,77,0.00,,,0.00,Weather View 32 v70,2013-01-23 13:19:00,
2013-01-23 05:24:00,51.0,43.3,29.96,SW,225,0.0,1.0,75,0.00,,,0.00,Weather View 32 v70,2013-01-23 13:24:00,
2013-01-23 05:29:00,51.0,43.3,29.96,SW,225,0.0,1.0,75,0.00,,,0.00,Weather View 32 v70,2013-01-23 13:29:00,
2013-01-23 05:34:00,51.0,43.3,29.97,SE,135,0.0,0.0,75,0.00,,,0.00,Weather View 32 v70,2013-01-23 13:34:00,
2013-01-23 05:39:00,51.0,43.3,29.97,SE,135,0.0,0.0,75,0.00,,,0.00,Weather View 32 v70,2013-01-23 13:39:00,
2013-01-23 05:44:00,51.0,43.3,29.97,SE,135,0.0,0.0,75,0.00,,,0.00,Weather View 32 v70,2013-01-23 13:44:00,
2013-01-23 05:49:00,51.0,43.3,29.97,SE,135,0.0,0.0,75,0.00,,,0.00,Weather View 32 v70,2013-01-23 13:49:00,
2013-01-23 05:54:00,51.0,44.0,29.97,SE,135,0.0,0.0,77,0.00,,,0.00,Weather View 32 v70,2013-01-23 13:54:00,
2013-01-23 05:59:00,51.0,43.3,29.97,SE,135,0.0,0.0,75,0.00,,,0.00,Weather View 32 v70,2013-01-23 13:59:00,
2013-01-23 06:04:00,51.0,43.3,29.97,SE,135,0.0,0.0,75,0.00,,,0.00,Weather View 32 v70,2013-01-23 14:04:00,
2013-01-23 06:09:00,51.0,43.3,29.97,SE,135,0.0,0.0,75,0.00,,,0.00,Weather View 32 v70,2013-01-23 14:09:00,
2013-01-23 06:19:00,51.0,43.3,29.97,SE,135,0.0,0.0,75,0.00,,,0.00,Weather View 32 v70,2013-01-23 14:19:00,
2013-01-23 06:24:00,51.0,43.3,29.98,SE,135,0.0,0.0,75,0.00,,,0.00,Weather View 32 v70,2013-01-23 14:24:00,
2013-01-23 06:29:00,51.0,44.0,29.97,SE,135,0.0,0.0,77,0.00,,,0.00,Weather View 32 v70,2013-01-23 14:29:00,
2013-01-23 06:34:00,51.0,43.3,29.97,SE,135,0.0,0.0,75,0.00,,,0.00,Weather View 32 v70,2013-01-23 14:34:00,
2013-01-23 06:39:00,51.0,43.3,29.98,SE,135,0.0,0.0,75,0.00,,,0.00,Weather View 32 v70,2013-01-23 14:39:00,
2013-01-23 06:44:00,51.0,43.3,29.98,SW,225,0.0,0.0,75,0.00,,,0.00,Weather View 32 v70,2013-01-23 14:44:00,
2013-01-23 06:49:00,51.0,43.3,29.98,SW,225,0.0,0.0,75,0.00,,,0.00,Weather View 32 v70,2013-01-23 14:49:00,
2013-01-23 06:54:00,51.0,43.3,29.98,SW,225,0.0,0.0,75,0.00,,,0.00,Weather View 32 v70,2013-01-23 14:54:00,
2013-01-23 06:59:00,51.0,43.3,29.98,SW,225,0.0,0.0,75,0.00,,,0.00,Weather View 32 v70,2013-01-23 14:59:00,
2013-01-23 07:04:00,51.0,44.0,29.99,SW,225,0.0,0.0,77,0.00,,,0.00,Weather View 32 v70,2013-01-23 15:04:00,
2013-01-23 07:09:00,51.0,43.0,29.99,SW,225,0.0,0.0,74,0.00,,,0.00,Weather View 32 v70,2013-01-23 15:09:00,
2013-01-23 07:14:00,51.0,42.6,29.98,SW,225,0.0,0.0,73,0.00,,,0.00,Weather View 32 v70,2013-01-23 15:14:00,
2013-01-23 07:18:00,51.0,41.5,29.99,SW,225,0.0,0.0,70,0.00,,,0.00,Weather View 32 v70,2013-01-23 15:18:00,
2013-01-23 07:23:00,51.0,39.2,29.99,SW,225,0.0,0.0,64,0.00,,,0.00,Weather View 32 v70,2013-01-23 15:23:00,
2013-01-23 07:28:00,51.0,38.8,29.99,SW,225,0.0,0.0,63,0.00,,,0.00,Weather View 32 v70,2013-01-23 15:28:00,
2013-01-23 07:33:00,51.0,38.4,29.99,SW,225,0.0,0.0,62,0.00,,,0.00,Weather View 32 v70,2013-01-23 15:33:00,
2013-01-23 07:38:00,51.0,37.2,29.99,SW,225,0.0,0.0,59,0.00,,,0.00,Weather View 32 v70,2013-01-23 15:38:00,
2013-01-23 07:43:00,51.0,38.0,29.99,SW,225,0.0,0.0,61,0.00,,,0.00,Weather View 32 v70,2013-01-23 15:43:00,
2013-01-23 07:53:00,51.0,38.0,29.99,NW,315,0.0,0.0,61,0.00,,,0.00,Weather View 32 v70,2013-01-23 15:53:00,
2013-01-23 07:58:00,51.0,37.6,29.99,NW,315,0.0,0.0,60,0.00,,,0.00,Weather View 32 v70,2013-01-23 15:58:00,
2013-01-23 08:03:00,51.0,37.6,29.99,NW,315,0.0,0.0,60,0.00,,,0.00,Weather View 32 v70,2013-01-23 16:03:00,
2013-01-23 08:08:00,51.0,37.6,29.98,SW,225,0.0,0.0,60,0.00,,,0.00,Weather View 32 v70,2013-01-23 16:08:00,
2013-01-23 08:11:00,52.0,38.5,29.98,SW,225,0.0,0.0,60,0.00,,,0.00,Weather View 32 v70,2013-01-23 16:11:00,
2013-01-23 08:15:00,52.0,38.1,29.99,SW,225,0.0,0.0,59,0.00,,,0.00,Weather View 32 v70,2013-01-23 16:15:00,
2013-01-23 08:19:00,52.0,38.1,29.99,SW,225,0.0,0.0,59,0.00,,,0.00,Weather View 32 v70,2013-01-23 16:19:00,
2013-01-23 08:24:00,52.0,38.1,29.99,SW,225,0.0,0.0,59,0.00,,,0.00,Weather View 32 v70,2013-01-23 16:24:00,
2013-01-23 08:29:00,52.0,37.7,29.99,SW,225,0.0,0.0,58,0.00,,,0.00,Weather View 32 v70,2013-01-23 16:29:00,
2013-01-23 08:34:00,52.0,5.7,29.99,SW,225,0.0,0.0,15,0.00,,,0.00,Weather View 32 v70,2013-01-23 16:34:00,
2013-01-23 08:39:00,52.0,37.7,29.99,SW,225,0.0,0.0,58,0.00,,,0.00,Weather View 32 v70,2013-01-23 16:39:00,
2013-01-23 08:44:00,52.0,37.7,29.99,NE,45,0.0,3.0,58,0.00,,,0.00,Weather View 32 v70,2013-01-23 16:44:00,
2013-01-23 08:49:00,52.0,19.8,29.99,ENE,67,0.0,3.0,28,0.00,,,0.00,Weather View 32 v70,2013-01-23 16:49:00,
2013-01-23 08:54:00,52.0,37.7,29.99,ENE,67,0.0,3.0,58,0.00,,,0.00,Weather View 32 v70,2013-01-23 16:54:00,
2013-01-23 08:59:00,52.0,37.7,29.99,SW,225,0.0,3.0,58,0.00,,,0.00,Weather View 32 v70,2013-01-23 16:59:00,
2013-01-23 09:04:00,52.0,38.1,29.99,SW,225,0.0,3.0,59,0.00,,,0.00,Weather View 32 v70,2013-01-23 17:04:00,
2013-01-23 09:09:00,52.0,37.7,29.99,SE,135,0.0,3.0,58,0.00,,,0.00,Weather View 32 v70,2013-01-23 17:09:00,
2013-01-23 09:11:00,52.0,37.7,29.99,SE,135,0.0,3.0,58,0.00,,,0.00,Weather View 32 v70,2013-01-23 17:11:00,
2013-01-23 09:14:00,52.0,37.7,29.99,SE,135,3.0,4.0,58,0.00,,,0.00,Weather View 32 v70,2013-01-23 17:14:00,
2013-01-23 09:19:00,52.0,37.2,30.00,WSW,247,0.0,4.0,57,0.00,,,0.00,Weather View 32 v70,2013-01-23 17:19:00,
2013-01-23 09:24:00,52.0,-46.0,30.00,ENE,67,0.0,4.0,1,0.00,,,0.00,Weather View 32 v70,2013-01-23 17:24:00,
2013-01-23 09:29:00,52.0,37.2,30.00,SE,135,0.0,4.0,57,0.00,,,0.00,Weather View 32 v70,2013-01-23 17:29:00,
2013-01-23 09:34:00,52.0,37.7,30.01,SE,135,0.0,4.0,58,0.00,,,0.00,Weather View 32 v70,2013-01-23 17:34:00,
2013-01-23 09:39:00,52.0,37.2,30.01,SE,135,0.0,4.0,57,0.00,,,0.00,Weather View 32 v70,2013-01-23 17:39:00,
2013-01-23 09:44:00,52.0,37.2,30.01,SE,135,0.0,4.0,57,0.00,,,0.00,Weather View 32 v70,2013-01-23 17:44:00,
2013-01-23 09:49:00,52.0,37.2,30.00,SE,135,0.0,4.0,57,0.00,,,0.00,Weather View 32 v70,2013-01-23 17:49:00,
2013-01-23 09:54:00,53.0,38.1,30.00,SE,135,0.0,4.0,57,0.00,,,0.00,Weather View 32 v70,2013-01-23 17:54:00,
2013-01-23 10:04:00,53.0,38.1,30.01,SE,135,0.0,4.0,57,0.00,,,0.00,Weather View 32 v70,2013-01-23 18:04:00,
2013-01-23 10:09:00,53.0,38.1,30.01,SE,135,0.0,4.0,57,0.00,,,0.00,Weather View 32 v70,2013-01-23 18:09:00,
2013-01-23 10:11:00,53.0,38.1,30.01,SE,135,0.0,4.0,57,0.00,,,0.00,Weather View 32 v70,2013-01-23 18:11:00,
2013-01-23 10:14:00,53.0,38.1,30.00,SW,225,0.0,4.0,57,0.00,,,0.00,Weather View 32 v70,2013-01-23 18:14:00,
2013-01-23 10:19:00,54.0,39.5,30.00,SW,225,0.0,4.0,58,0.00,,,0.00,Weather View 32 v70,2013-01-23 18:19:00,
2013-01-23 10:24:00,54.0,39.5,30.01,SW,225,0.0,2.0,58,0.00,,,0.00,Weather View 32 v70,2013-01-23 18:24:00,
2013-01-23 10:29:00,54.0,39.5,30.00,SW,225,0.0,2.0,58,0.00,,,0.00,Weather View 32 v70,2013-01-23 18:29:00,
2013-01-23 10:39:00,54.0,39.5,30.01,ESE,112,0.0,2.0,58,0.00,,,0.00,Weather View 32 v70,2013-01-23 18:39:00,
2013-01-23 10:44:00,54.0,39.5,30.02,ESE,112,0.0,2.0,58,0.00,,,0.00,Weather View 32 v70,2013-01-23 18:44:00,
2013-01-23 10:49:00,54.0,39.5,30.01,SW,225,0.0,2.0,58,0.00,,,0.00,Weather View 32 v70,2013-01-23 18:49:00,
2013-01-23 10:54:00,54.0,39.5,30.01,SW,225,0.0,2.0,58,0.00,,,0.00,Weather View 32 v70,2013-01-23 18:54:00,
2013-01-23 10:59:00,54.0,39.5,30.01,SW,225,0.0,2.0,58,0.00,,,0.00,Weather View 32 v70,2013-01-23 18:59:00,
2013-01-23 11:04:00,54.0,39.5,30.01,SW,225,0.0,2.0,58,0.00,,,0.00,Weather View 32 v70,2013-01-23 19:04:00,
2013-01-23 11:09:00,54.0,-44.7,30.01,SW,225,0.0,2.0,1,0.00,,,0.00,Weather View 32 v70,2013-01-23 19:09:00,
2013-01-23 11:19:00,54.0,39.5,30.01,SW,225,0.0,2.0,58,0.00,,,0.00,Weather View 32 v70,2013-01-23 19:19:00,
2013-01-23 11:24:00,55.0,40.5,30.01,SW,225,0.0,2.0,58,0.00,,,0.00,Weather View 32 v70,2013-01-23 19:24:00,
2013-01-23 11:29:00,55.0,40.5,30.01,SW,225,0.0,2.0,58,0.00,,,0.00,Weather View 32 v70,2013-01-23 19:29:00,
2013-01-23 11:33:00,55.0,40.0,30.01,SW,225,0.0,2.0,57,0.00,,,0.00,Weather View 32 v70,2013-01-23 19:33:00,
2013-01-23 11:38:00,55.0,40.0,30.00,SW,225,0.0,2.0,57,0.00,,,0.00,Weather View 32 v70,2013-01-23 19:38:00,
2013-01-23 11:43:00,55.0,-44.1,30.00,SW,225,0.0,2.0,1,0.00,,,0.00,Weather View 32 v70,2013-01-23 19:43:00,
2013-01-23 11:48:00,54.0,39.1,30.00,North,360,0.0,0.0,57,0.00,,,0.00,Weather View 32 v70,2013-01-23 19:48:00,
2013-01-23 11:53:00,54.0,39.1,29.99,NW,315,0.0,0.0,57,0.00,,,0.00,Weather View 32 v70,2013-01-23 19:53:00,
2013-01-23 11:58:00,55.0,40.0,29.99,North,360,0.0,0.0,57,0.00,,,0.00,Weather View 32 v70,2013-01-23 19:58:00,
2013-01-23 12:03:00,55.0,40.0,29.99,North,360,0.0,0.0,57,0.00,,,0.00,Weather View 32 v70,2013-01-23 20:03:00,
2013-01-23 12:09:00,55.0,40.0,29.99,North,360,0.0,0.0,57,0.00,,,0.00,Weather View 32 v70,2013-01-23 20:09:00,
2013-01-23 12:14:00,55.0,40.0,29.99,East,90,0.0,2.0,57,0.00,,,0.00,Weather View 32 v70,2013-01-23 20:14:00,
2013-01-23 12:19:00,55.0,40.0,29.99,East,90,0.0,3.0,57,0.00,,,0.00,Weather View 32 v70,2013-01-23 20:19:00,
2013-01-23 12:24:00,55.0,40.0,29.99,SE,135,0.0,4.0,57,0.00,,,0.00,Weather View 32 v70,2013-01-23 20:24:00,
2013-01-23 12:29:00,55.0,40.0,29.99,North,360,0.0,4.0,57,0.00,,,0.00,Weather View 32 v70,2013-01-23 20:29:00,
2013-01-23 12:34:00,54.0,39.5,29.99,North,360,0.0,4.0,58,0.00,,,0.00,Weather View 32 v70,2013-01-23 20:34:00,
2013-01-23 12:39:00,54.0,-11.9,30.00,North,360,0.0,4.0,6,0.00,,,0.00,Weather View 32 v70,2013-01-23 20:39:00,
2013-01-23 12:44:00,54.0,39.5,30.00,North,360,0.0,4.0,58,0.00,,,0.00,Weather View 32 v70,2013-01-23 20:44:00,
2013-01-23 12:49:00,53.0,38.6,30.00,North,360,0.0,4.0,58,0.00,,,0.00,Weather View 32 v70,2013-01-23 20:49:00,
2013-01-23 12:54:00,53.0,38.1,30.00,North,360,0.0,4.0,57,0.01,,,0.01,Weather View 32 v70,2013-01-23 20:54:00,
2013-01-23 12:59:00,53.0,38.1,30.00,North,360,0.0,4.0,57,0.01,,,0.01,Weather View 32 v70,2013-01-23 20:59:00,
2013-01-23 13:04:00,53.0,38.1,30.00,North,360,0.0,4.0,57,0.01,,,0.01,Weather View 32 v70,2013-01-23 21:04:00,
2013-01-23 13:14:00,53.0,38.1,30.00,North,360,0.0,4.0,57,0.02,,,0.02,Weather View 32 v70,2013-01-23 21:14:00,
2013-01-23 13:19:00,53.0,38.1,30.00,North,360,0.0,4.0,57,0.02,,,0.02,Weather View 32 v70,2013-01-23 21:19:00,
2013-01-23 13:24:00,53.0,38.1,30.00,North,360,0.0,0.0,57,0.02,,,0.02,Weather View 32 v70,2013-01-23 21:24:00,
2013-01-23 13:29:00,54.0,-11.9,29.99,North,360,0.0,0.0,6,0.02,,,0.02,Weather View 32 v70,2013-01-23 21:29:00,
2013-01-23 13:34:00,53.0,38.6,29.99,North,360,0.0,0.0,58,0.02,,,0.02,Weather View 32 v70,2013-01-23 21:34:00,
2013-01-23 13:39:00,53.0,38.6,29.99,SE,135,0.0,0.0,58,0.02,,,0.02,Weather View 32 v70,2013-01-23 21:39:00,
2013-01-23 13:49:00,53.0,38.6,30.00,SE,135,0.0,0.0,58,0.03,,,0.03,Weather View 32 v70,2013-01-23 21:49:00,
2013-01-23 13:54:00,52.0,37.7,29.99,SE,135,0.0,2.0,58,0.02,,,0.03,Weather View 32 v70,2013-01-23 21:54:00,
2013-01-23 13:59:00,52.0,37.7,30.00,SE,135,0.0,2.0,58,0.03,,,0.04,Weather View 32 v70,2013-01-23 21:59:00,
2013-01-23 14:04:00,52.0,-10.3,30.00,SE,135,0.0,2.0,7,0.03,,,0.04,Weather View 32 v70,2013-01-23 22:04:00,
2013-01-23 14:09:00,52.0,37.2,30.00,SW,225,0.0,4.0,57,0.02,,,0.04,Weather View 32 v70,2013-01-23 22:09:00,
2013-01-23 14:14:00,52.0,37.2,30.00,SW,225,0.0,4.0,57,0.02,,,0.04,Weather View 32 v70,2013-01-23 22:14:00,
2013-01-23 14:19:00,52.0,37.7,30.00,SW,225,7.0,7.0,58,0.02,,,0.04,Weather View 32 v70,2013-01-23 22:19:00,
2013-01-23 14:24:00,52.0,38.1,30.00,SW,225,2.0,8.0,59,0.02,,,0.04,Weather View 32 v70,2013-01-23 22:24:00,
2013-01-23 14:29:00,52.0,38.5,30.01,SW,225,0.0,8.0,60,0.02,,,0.04,Weather View 32 v70,2013-01-23 22:29:00,
2013-01-23 14:34:00,52.0,38.1,30.02,SW,225,3.0,8.0,59,0.03,,,0.05,Weather View 32 v70,2013-01-23 22:34:00,
2013-01-23 14:39:00,52.0,-7.6,30.02,SW,225,0.0,8.0,8,0.05,,,0.07,Weather View 32 v70,2013-01-23 22:39:00,
2013-01-23 14:44:00,51.0,36.3,30.02,SE,135,0.0,8.0,57,0.06,,,0.08,Weather View 32 v70,2013-01-23 22:44:00,
2013-01-23 14:49:00,51.0,36.3,30.02,SW,225,0.0,8.0,57,0.05,,,0.08,Weather View 32 v70,2013-01-23 22:49:00,
2013-01-23 14:54:00,52.0,38.5,30.03,SW,225,2.0,8.0,60,0.05,,,0.08,Weather View 32 v70,2013-01-23 22:54:00,
2013-01-23 14:59:00,52.0,38.9,30.03,SW,225,2.0,8.0,61,0.04,,,0.08,Weather View 32 v70,2013-01-23 22:59:00,
2013-01-23 15:04:00,52.0,38.5,30.03,SW,225,1.0,8.0,60,0.05,,,0.09,Weather View 32 v70,2013-01-23 23:04:00,
2013-01-23 15:09:00,52.0,38.5,30.03,WSW,247,0.0,8.0,60,0.05,,,0.09,Weather View 32 v70,2013-01-23 23:09:00,
2013-01-23 15:14:00,52.0,-3.0,30.02,West,270,2.0,8.0,10,0.06,,,0.10,Weather View 32 v70,2013-01-23 23:14:00,
2013-01-23 15:24:00,53.0,39.0,30.02,SW,225,0.0,8.0,59,0.06,,,0.10,Weather View 32 v70,2013-01-23 23:24:00,
2013-01-23 15:29:00,53.0,39.0,30.01,SW,225,0.0,8.0,59,0.06,,,0.10,Weather View 32 v70,2013-01-23 23:29:00,
2013-01-23 15:34:00,53.0,39.5,30.01,WSW,247,0.0,8.0,60,0.05,,,0.10,Weather View 32 v70,2013-01-23 23:34:00,
2013-01-23 15:39:00,53.0,39.9,30.02,WNW,292,0.0,7.0,61,0.03,,,0.10,Weather View 32 v70,2013-01-23 23:39:00,
2013-01-23 15:44:00,53.0,39.9,30.02,ENE,67,0.0,7.0,61,0.02,,,0.10,Weather View 32 v70,2013-01-23 23:44:00,
2013-01-23 15:49:00,53.0,31.6,30.02,NE,45,0.0,7.0,44,0.02,,,0.10,Weather View 32 v70,2013-01-23 23:49:00,
2013-01-23 15:54:00,53.0,39.5,30.02,NNE,22,0.0,7.0,60,0.02,,,0.10,Weather View 32 v70,2013-01-23 23:54:00,
2013-01-23 15:59:00,53.0,39.9,30.01,NNE,22,0.0,6.0,61,0.02,,,0.10,Weather View 32 v70,2013-01-23 23:59:00,
2013-01-23 16:04:00,53.0,39.9,30.02,NNE,22,0.0,6.0,61,0.01,,,0.10,Weather View 32 v70,2013-01-24 00:04:00,
2013-01-23 16:09:00,53.0,39.5,30.02,NNE,22,0.0,6.0,60,0.01,,,0.10,Weather View 32 v70,2013-01-24 00:09:00,
2013-01-23 16:14:00,52.0,38.9,30.01,NNE,22,0.0,6.0,61,0.00,,,0.10,Weather View 32 v70,2013-01-24 00:14:00,
2013-01-23 16:15:00,52.0,38.9,30.01,NNE,22,0.0,6.0,61,0.00,,,0.10,Weather View 32 v70,2013-01-24 00:15:00,
2013-01-23 16:24:00,52.0,32.4,30.02,NNE,22,1.0,6.0,47,0.00,,,0.10,Weather View 32 v70,2013-01-24 00:24:00,
2013-01-23 16:29:00,52.0,38.9,30.02,NNE,22,0.0,6.0,61,0.00,,,0.10,Weather View 32 v70,2013-01-24 00:29:00,
2013-01-23 16:34:00,52.0,38.9,30.02,NNE,22,1.0,7.0,61,0.00,,,0.10,Weather View 32 v70,2013-01-24 00:34:00,
2013-01-23 16:39:00,52.0,38.9,30.02,NNE,22,0.0,7.0,61,0.00,,,0.10,Weather View 32 v70,2013-01-24 00:39:00,
2013-01-23 16:44:00,52.0,38.9,30.02,NNE,22,1.0,7.0,61,0.00,,,0.10,Weather View 32 v70,2013-01-24 00:44:00,
2013-01-23 16:48:00,51.0,38.0,30.02,NNE,22,2.0,7.0,61,0.00,,,0.10,Weather View 32 v70,2013-01-24 00:48:00,
2013-01-23 16:53:00,51.0,38.4,30.03,NE,45,0.0,7.0,62,0.00,,,0.10,Weather View 32 v70,2013-01-24 00:53:00,
2013-01-23 16:58:00,51.0,38.0,30.03,NNE,22,0.0,7.0,61,0.00,,,0.10,Weather View 32 v70,2013-01-24 00:58:00,
2013-01-23 17:03:00,51.0,38.8,30.03,NNE,22,0.0,7.0,63,0.00,,,0.10,Weather View 32 v70,2013-01-24 01:03:00,
2013-01-23 17:10:00,51.0,38.8,30.03,NNE,22,0.0,7.0,63,0.00,,,0.10,Weather View 32 v70,2013-01-24 01:10:00,
2013-01-23 17:15:00,51.0,39.2,30.03,NNE,22,0.0,7.0,64,0.00,,,0.10,Weather View 32 v70,2013-01-24 01:15:00,
2013-01-23 17:16:00,51.0,39.2,30.03,NNE,22,0.0,7.0,64,0.00,,,0.10,Weather View 32 v70,2013-01-24 01:16:00,
2013-01-23 17:24:00,51.0,39.6,30.03,NE,45,1.0,7.0,65,0.00,,,0.10,Weather View 32 v70,2013-01-24 01:24:00,
2013-01-23 17:29:00,51.0,39.6,30.03,NNE,22,2.0,7.0,65,0.00,,,0.10,Weather View 32 v70,2013-01-24 01:29:00,
2013-01-23 17:34:00,51.0,40.0,30.04,NNE,22,0.0,6.0,66,0.00,,,0.10,Weather View 32 v70,2013-01-24 01:34:00,
2013-01-23 17:39:00,50.0,39.5,30.04,NE,45,0.0,6.0,67,0.00,,,0.10,Weather View 32 v70,2013-01-24 01:39:00,
2013-01-23 17:44:00,50.0,39.5,30.04,NNE,22,0.0,6.0,67,0.00,,,0.10,Weather View 32 v70,2013-01-24 01:44:00,
2013-01-23 17:49:00,50.0,40.2,30.04,NE,45,0.0,6.0,69,0.00,,,0.10,Weather View 32 v70,2013-01-24 01:49:00,
2013-01-23 17:54:00,50.0,41.7,30.05,NNE,22,0.0,6.0,73,0.00,,,0.10,Weather View 32 v70,2013-01-24 01:54:00,
2013-01-23 17:59:00,50.0,41.0,30.05,NNE,22,0.0,5.0,71,0.00,,,0.10,Weather View 32 v70,2013-01-24 01:59:00,
2013-01-23 18:09:00,51.0,43.3,30.04,NE,45,0.0,5.0,75,0.00,,,0.10,Weather View 32 v70,2013-01-24 02:09:00,
2013-01-23 18:14:00,50.0,41.3,30.04,NNE,22,0.0,5.0,72,0.00,,,0.10,Weather View 32 v70,2013-01-24 02:14:00,
2013-01-23 18:16:00,50.0,41.3,30.04,NNE,22,0.0,5.0,72,0.00,,,0.10,Weather View 32 v70,2013-01-24 02:16:00,
2013-01-23 18:19:00,50.0,41.7,30.05,NNE,22,0.0,5.0,73,0.00,,,0.10,Weather View 32 v70,2013-01-24 02:19:00,
2013-01-23 18:24:00,50.0,42.0,30.05,NNE,22,0.0,5.0,74,0.00,,,0.10,Weather View 32 v70,2013-01-24 02:24:00,
2013-01-23 18:29:00,50.0,42.0,30.05,NNE,22,0.0,3.0,74,0.00,,,0.10,Weather View 32 v70,2013-01-24 02:29:00,
2013-01-23 18:39:00,50.0,42.7,30.04,NNE,22,0.0,3.0,76,0.01,,,0.11,Weather View 32 v70,2013-01-24 02:39:00,
2013-01-23 18:44:00,51.0,44.7,30.03,NNE,22,0.0,4.0,79,0.01,,,0.11,Weather View 32 v70,2013-01-24 02:44:00,
2013-01-23 18:49:00,50.0,43.1,30.03,NNE,22,3.0,4.0,77,0.01,,,0.11,Weather View 32 v70,2013-01-24 02:49:00,
2013-01-23 18:54:00,50.0,43.1,30.04,ENE,67,0.0,4.0,77,0.01,,,0.11,Weather View 32 v70,2013-01-24 02:54:00,
2013-01-23 18:59:00,50.0,43.4,30.04,NNE,22,0.0,4.0,78,0.01,,,0.11,Weather View 32 v70,2013-01-24 02:59:00,
2013-01-23 19:04:00,50.0,43.4,30.04,NNE,22,0.0,4.0,78,0.01,,,0.11,Weather View 32 v70,2013-01-24 03:04:00,
2013-01-23 19:09:00,50.0,43.4,30.04,NNE,22,0.0,4.0,78,0.01,,,0.11,Weather View 32 v70,2013-01-24 03:09:00,
2013-01-23 19:14:00,50.0,43.4,30.05,ENE,67,0.0,4.0,78,0.01,,,0.11,Weather View 32 v70,2013-01-24 03:14:00,
2013-01-23 19:17:00,50.0,43.4,30.05,ENE,67,0.0,4.0,78,0.01,,,0.11,Weather View 32 v70,2013-01-24 03:17:00,
2013-01-23 19:24:00,50.0,43.4,30.05,NNE,22,0.0,4.0,78,0.01,,,0.11,Weather View 32 v70,2013-01-24 03:24:00,
2013-01-23 19:29:00,50.0,43.4,30.05,NNE,22,0.0,4.0,78,0.01,,,0.11,Weather View 32 v70,2013-01-24 03:29:00,
2013-01-23 19:34:00,50.0,43.4,30.05,NNE,22,0.0,4.0,78,0.01,,,0.11,Weather View 32 v70,2013-01-24 03:34:00,
2013-01-23 19:39:00,50.0,43.4,30.05,NNE,22,0.0,4.0,78,0.00,,,0.11,Weather View 32 v70,2013-01-24 03:39:00,
2013-01-23 19:44:00,50.0,43.4,30.05,NNE,22,0.0,3.0,78,0.00,,,0.11,Weather View 32 v70,2013-01-24 03:44:00,
2013-01-23 19:49:00,50.0,43.4,30.05,NNE,22,0.0,3.0,78,0.00,,,0.11,Weather View 32 v70,2013-01-24 03:49:00,
2013-01-23 19:54:00,50.0,44.1,30.05,NNE,22,0.0,3.0,80,0.00,,,0.11,Weather View 32 v70,2013-01-24 03:54:00,
2013-01-23 19:59:00,50.0,43.4,30.05,NNE,22,0.0,2.0,78,0.00,,,0.11,Weather View 32 v70,2013-01-24 03:59:00,
2013-01-23 20:04:00,50.0,43.4,30.05,NNE,22,0.0,2.0,78,0.00,,,0.11,Weather View 32 v70,2013-01-24 04:04:00,
2013-01-23 20:09:00,50.0,43.4,30.06,NNE,22,0.0,2.0,78,0.00,,,0.11,Weather View 32 v70,2013-01-24 04:09:00,
2013-01-23 20:14:00,50.0,43.4,30.06,NNE,22,0.0,2.0,78,0.00,,,0.11,Weather View 32 v70,2013-01-24 04:14:00,
2013-01-23 20:19:00,50.0,43.4,30.06,NNE,22,0.0,2.0,78,0.00,,,0.11,Weather View 32 v70,2013-01-24 04:19:00,
2013-01-23 20:24:00,50.0,43.4,30.06,NNE,22,0.0,2.0,78,0.00,,,0.11,Weather View 32 v70,2013-01-24 04:24:00,
2013-01-23 20:29:00,50.0,44.1,30.06,NNE,22,0.0,2.0,80,0.00,,,0.11,Weather View 32 v70,2013-01-24 04:29:00,
2013-01-23 20:34:00,50.0,43.4,30.06,NNE,22,0.0,2.0,78,0.01,,,0.12,Weather View 32 v70,2013-01-24 04:34:00,
2013-01-23 20:44:00,50.0,43.4,30.06,NNE,22,0.0,2.0,78,0.01,,,0.12,Weather View 32 v70,2013-01-24 04:44:00,
2013-01-23 20:49:00,50.0,43.4,30.06,NNE,22,0.0,2.0,78,0.01,,,0.12,Weather View 32 v70,2013-01-24 04:49:00,
2013-01-23 20:54:00,50.0,43.4,30.05,NNE,22,1.0,4.0,78,0.01,,,0.12,Weather View 32 v70,2013-01-24 04:54:00,
2013-01-23 20:59:00,50.0,43.4,30.05,NNE,22,0.0,4.0,78,0.01,,,0.12,Weather View 32 v70,2013-01-24 04:59:00,
2013-01-23 21:04:00,50.0,44.1,30.05,NNE,22,0.0,4.0,80,0.01,,,0.12,Weather View 32 v70,2013-01-24 05:04:00,
2013-01-23 21:09:00,50.0,43.4,30.05,NNE,22,1.0,7.0,78,0.01,,,0.12,Weather View 32 v70,2013-01-24 05:09:00,
2013-01-23 21:14:00,50.0,43.4,30.05,NNE,22,0.0,7.0,78,0.01,,,0.12,Weather View 32 v70,2013-01-24 05:14:00,
2013-01-23 21:17:00,50.0,43.4,30.05,NNE,22,0.0,7.0,78,0.01,,,0.12,Weather View 32 v70,2013-01-24 05:17:00,
2013-01-23 21:19:00,50.0,43.4,30.06,NNE,22,0.0,7.0,78,0.01,,,0.12,Weather View 32 v70,2013-01-24 05:19:00,
2013-01-23 21:24:00,50.0,43.4,30.06,NNE,22,0.0,7.0,78,0.01,,,0.12,Weather View 32 v70,2013-01-24 05:24:00,
2013-01-23 21:29:00,50.0,43.4,30.05,NE,45,0.0,7.0,78,0.01,,,0.12,Weather View 32 v70,2013-01-24 05:29:00,
2013-01-23 21:34:00,50.0,43.4,30.05,NE,45,0.0,7.0,78,0.00,,,0.12,Weather View 32 v70,2013-01-24 05:34:00,
2013-01-23 21:39:00,50.0,44.1,30.05,NE,45,0.0,7.0,80,0.00,,,0.12,Weather View 32 v70,2013-01-24 05:39:00,
2013-01-23 21:44:00,50.0,43.4,30.05,NNE,22,0.0,7.0,78,0.00,,,0.12,Weather View 32 v70,2013-01-24 05:44:00,
2013-01-23 21:49:00,50.0,43.4,30.06,NNE,22,0.0,7.0,78,0.00,,,0.12,Weather View 32 v70,2013-01-24 05:49:00,
2013-01-23 21:54:00,50.0,43.4,30.06,NNE,22,0.0,7.0,78,0.00,,,0.12,Weather View 32 v70,2013-01-24 05:54:00,
2013-01-23 21:59:00,50.0,43.4,30.06,NNE,22,1.0,7.0,78,0.00,,,0.12,Weather View 32 v70,2013-01-24 05:59:00,
2013-01-23 22:04:00,50.0,43.4,30.06,NNE,22,0.0,7.0,78,0.00,,,0.12,Weather View 32 v70,2013-01-24 06:04:00,
2013-01-23 22:09:00,50.0,43.4,30.06,NNE,22,0.0,4.0,78,0.00,,,0.12,Weather View 32 v70,2013-01-24 06:09:00,
2013-01-23 22:14:00,50.0,44.1,30.06,NNE,22,0.0,4.0,80,0.00,,,0.12,Weather View 32 v70,2013-01-24 06:14:00,
2013-01-23 22:18:00,50.0,44.1,30.06,NNE,22,0.0,4.0,80,0.00,,,0.12,Weather View 32 v70,2013-01-24 06:18:00,
2013-01-23 22:24:00,50.0,43.4,30.06,NNE,22,0.0,6.0,78,0.01,,,0.13,Weather View 32 v70,2013-01-24 06:24:00,
2013-01-23 22:29:00,50.0,43.4,30.06,NNE,22,0.0,6.0,78,0.01,,,0.13,Weather View 32 v70,2013-01-24 06:29:00,
2013-01-23 22:33:00,50.0,43.4,30.06,NNE,22,2.0,6.0,78,0.01,,,0.13,Weather View 32 v70,2013-01-24 06:33:00,
2013-01-23 22:38:00,50.0,43.4,30.06,NNE,22,6.0,8.0,78,0.01,,,0.13,Weather View 32 v70,2013-01-24 06:38:00,
2013-01-23 22:43:00,50.0,43.4,30.06,NNE,22,1.0,8.0,78,0.01,,,0.13,Weather View 32 v70,2013-01-24 06:43:00,
2013-01-23 22:48:00,50.0,44.1,30.06,NNE,22,0.0,8.0,80,0.01,,,0.13,Weather View 32 v70,2013-01-24 06:48:00,
2013-01-23 22:53:00,50.0,43.4,30.06,NNE,22,0.0,8.0,78,0.01,,,0.13,Weather View 32 v70,2013-01-24 06:53:00,
2013-01-23 22:58:00,50.0,43.4,30.06,NNE,22,0.0,8.0,78,0.01,,,0.13,Weather View 32 v70,2013-01-24 06:58:00,
2013-01-23 23:03:00,50.0,43.4,30.06,NNE,22,6.0,8.0,78,0.01,,,0.13,Weather View 32 v70,2013-01-24 07:03:00,
2013-01-23 23:10:00,50.0,44.1,30.07,ENE,67,0.0,8.0,80,0.01,,,0.13,Weather View 32 v70,2013-01-24 07:10:00,
2013-01-23 23:15:00,50.0,43.4,30.07,NNE,22,0.0,8.0,78,0.01,,,0.13,Weather View 32 v70,2013-01-24 07:15:00,
2013-01-23 23:24:00,50.0,43.4,30.07,NNE,22,1.0,8.0,78,0.00,,,0.13,Weather View 32 v70,2013-01-24 07:24:00,
2013-01-23 23:29:00,50.0,43.4,30.07,NNE,22,0.0,8.0,78,0.00,,,0.13,Weather View 32 v70,2013-01-24 07:29:00,
2013-01-23 23:34:00,50.0,43.4,30.06,NNE,22,0.0,8.0,78,0.00,,,0.13,Weather View 32 v70,2013-01-24 07:34:00,
2013-01-23 23:39:00,50.0,43.4,30.06,NE,45,2.0,8.0,78,0.00,,,0.13,Weather View 32 v70,2013-01-24 07:39:00,
2013-01-23 23:44:00,50.0,44.1,30.06,NNE,22,1.0,7.0,80,0.00,,,0.13,Weather View 32 v70,2013-01-24 07:44:00,
2013-01-23 23:54:00,50.0,43.4,30.06,NE,45,0.0,6.0,78,0.00,,,0.13,Weather View 32 v70,2013-01-24 07:54:00,